TimeEST,TemperatureF,Dew PointF,Humidity,Sea Level PressureIn,VisibilityMPH,Wind Direction,Wind SpeedMPH,Gust SpeedMPH,PrecipitationIn,Events,Conditions,WindDirDegrees,DateUTC
12:53 AM,21.9,17.1,82,30.26,10.0,Calm,Calm,-,N/A,,Clear,0,2012-12-07 05:53:00
1:53 AM,24.1,18.0,77,30.27,10.0,Calm,Calm,-,N/A,,Clear,0,2012-12-07 06:53:00
2:53 AM,24.1,18.0,77,30.25,10.0,Calm,Calm,-,N/A,,Clear,0,2012-12-07 07:53:00
3:53 AM,23.0,18.0,81,30.22,10.0,Calm,Calm,-,N/A,,Clear,0,2012-12-07 08:53:00
4:53 AM,23.0,19.0,85,30.22,10.0,Calm,Calm,-,N/A,,Clear,0,2012-12-07 09:53:00
5:53 AM,24.1,19.0,81,30.20,10.0,Calm,Calm,-,N/A,,Clear,0,2012-12-07 10:53:00
6:21 AM,24.8,19.4,80,30.21,10.0,Calm,Calm,-,N/A,,Mostly Cloudy,0,2012-12-07 11:21:00
6:53 AM,26.1,21.0,81,30.22,10.0,Calm,Calm,-,N/A,,Overcast,0,2012-12-07 11:53:00
7:36 AM,26.6,21.2,80,30.21,10.0,Calm,Calm,-,N/A,,Scattered Clouds,0,2012-12-07 12:36:00
7:53 AM,28.0,21.9,78,30.20,10.0,Calm,Calm,-,N/A,,Clear,0,2012-12-07 12:53:00
8:53 AM,30.9,25.0,79,30.20,10.0,Calm,Calm,-,N/A,,Overcast,0,2012-12-07 13:53:00
9:53 AM,35.1,28.0,76,30.19,10.0,Calm,Calm,-,N/A,,Overcast,0,2012-12-07 14:53:00
10:53 AM,37.0,28.9,73,30.17,10.0,West,4.6,-,N/A,,Overcast,260,2012-12-07 15:53:00
11:35 AM,37.4,30.2,75,30.16,8.0,WSW,3.5,-,0.00,Rain,Light Rain,240,2012-12-07 16:35:00
11:53 AM,37.9,30.9,76,30.15,10.0,Calm,Calm,-,0.00,,Overcast,0,2012-12-07 16:53:00
12:53 PM,37.9,33.1,83,30.12,4.0,Calm,Calm,-,0.03,Rain,Light Rain,0,2012-12-07 17:53:00
1:29 PM,37.4,33.8,87,30.11,9.0,Calm,Calm,-,0.00,,Overcast,0,2012-12-07 18:29:00
1:50 PM,37.4,33.8,87,30.10,6.0,Calm,Calm,-,0.00,,Overcast,0,2012-12-07 18:50:00
1:53 PM,37.9,34.0,86,30.10,5.0,Calm,Calm,-,0.00,,Overcast,0,2012-12-07 18:53:00
2:53 PM,37.9,35.1,89,30.09,5.0,Calm,Calm,-,0.01,Rain,Light Rain,0,2012-12-07 19:53:00
3:53 PM,37.9,36.0,93,30.08,3.0,Calm,Calm,-,0.00,Rain,Light Rain,0,2012-12-07 20:53:00
4:08 PM,37.4,35.6,93,30.08,2.5,Calm,Calm,-,0.01,Rain,Light Rain,0,2012-12-07 21:08:00
4:18 PM,37.4,35.6,93,30.08,3.0,Calm,Calm,-,0.01,Rain,Light Rain,0,2012-12-07 21:18:00
4:53 PM,37.9,36.0,93,30.07,5.0,Calm,Calm,-,0.02,Rain,Light Rain,0,2012-12-07 21:53:00
5:53 PM,37.9,36.0,93,30.07,4.0,Calm,Calm,-,0.01,,Overcast,0,2012-12-07 22:53:00
6:00 PM,37.4,35.6,93,30.07,4.0,Calm,Calm,-,N/A,,Overcast,0,2012-12-07 23:00:00
6:53 PM,37.9,36.0,93,30.07,5.0,Calm,Calm,-,N/A,,Overcast,0,2012-12-07 23:53:00
7:53 PM,39.0,36.0,89,30.07,4.0,Calm,Calm,-,0.01,Rain,Light Rain,0,2012-12-08 00:53:00
8:07 PM,37.4,35.6,93,30.07,2.5,Calm,Calm,-,0.00,Rain,Light Rain,0,2012-12-08 01:07:00
8:16 PM,39.2,35.6,87,30.07,3.0,Calm,Calm,-,0.01,Rain,Light Rain,0,2012-12-08 01:16:00
8:25 PM,39.2,35.6,87,30.07,3.0,Calm,Calm,-,0.01,Rain,Light Rain,0,2012-12-08 01:25:00
8:48 PM,39.2,37.4,93,30.07,2.5,Calm,Calm,-,0.01,Rain,Light Rain,0,2012-12-08 01:48:00
8:49 PM,39.0,37.0,93,30.06,2.0,Calm,Calm,-,0.01,Rain,Light Rain,0,2012-12-08 01:49:00
9:00 PM,39.2,35.6,87,30.07,3.0,Calm,Calm,-,0.00,,Overcast,0,2012-12-08 02:00:00
9:53 PM,39.0,36.0,89,30.05,5.0,Calm,Calm,-,0.00,,Overcast,0,2012-12-08 02:53:00
10:11 PM,39.2,35.6,87,30.05,6.0,Calm,Calm,-,N/A,,Overcast,0,2012-12-08 03:11:00
10:53 PM,39.0,36.0,89,30.03,5.0,Calm,Calm,-,N/A,,Overcast,0,2012-12-08 03:53:00
11:53 PM,39.0,36.0,89,30.02,4.0,Calm,Calm,-,N/A,,Overcast,0,2012-12-08 04:53:00